Weather History for LGLR - December, 2013

Change the Weather History Date:

Sunday, December 15, 2013

  Actual Average Record
Temperature  
Mean Temperature 40 °F -  
Max Temperature 54 °F 50 °F - ()
Min Temperature 26 °F 34 °F - ()
Degree Days  
Heating Degree Days 25    
Moisture  
Dew Point 31 °F    
Average Humidity 74    
Maximum Humidity 100    
Minimum Humidity 33    
Precipitation  
Precipitation 0.00 in 0.05 in - ()
Sea Level Pressure  
Sea Level Pressure 30.39 in    
Wind  
Wind Speed 0 mph ()    
Max Wind Speed 0 mph    
Max Gust Speed -    
Visibility 5.6 miles    
Events      
T = Trace of Precipitation, MM = Missing Value Source: Averaged Metar Reports

Daily Weather History Graph

Daily Weather History Graph

Search for Another Location

Airport or City:

Trip Planner

Search our weather history database for the weather conditions in past years. The results will help you decide how hot, cold, wet, or windy it might be!

Date:

Astronomy

Dec. 15, 2013 Rise Set
Actual Time 7:43 AM EET 5:07 PM EET
Civil Twilight 7:13 AM EET 5:37 PM EET
Nautical Twilight 6:39 AM EET 6:11 PM EET
Astronomical Twilight 6:06 AM EET 6:44 PM EET
Moon 3:57 PM EET (12/15) 5:43 AM EET (12/15)
Length of Visible Light 10h 23m
Length of Day
9h 23m
Waxing Gibbous, 96% of the Moon is Illuminated
Dec 15
Waxing Gibbous
Dec 17
Full
Dec 25
Last Quarter
Jan 1
New
Jan 8
First Quarter

Hourly Weather History & Observations

Time (EET) Temp. Dew Point Humidity Pressure Visibility Wind Dir Wind Speed Gust Speed Precip Events Conditions
12:50 AM 30.2 °F 26.6 °F 86% 30.42 in - Calm Calm - N/A   Clear
1:50 AM 30.2 °F 26.6 °F 86% 30.39 in - Calm Calm - N/A   Clear
2:00 AM 29 °F 27 °F 90% 30.43 in 6 mi Calm Calm - -  
2:50 AM 26.6 °F 24.8 °F 93% 30.42 in - Calm Calm - N/A   Clear
3:50 AM 28.4 °F 26.6 °F 93% 30.39 in - Calm Calm - N/A   Clear
4:50 AM 26.6 °F 24.8 °F 93% 30.39 in - Calm Calm - N/A   Clear
5:50 AM 26.6 °F 24.8 °F 93% 30.39 in - Calm Calm - N/A   Clear
6:50 AM 26.6 °F 26.6 °F 100% 30.42 in - Calm Calm - N/A   Clear
7:50 AM 28.4 °F 26.6 °F 93% 30.42 in 3.7 mi Calm Calm - N/A   Unknown
8:00 AM 28 °F 27 °F 92% 30.44 in 4 mi Calm Calm - -   Mist
8:50 AM 30.2 °F 28.4 °F 93% 30.42 in 3.7 mi Calm Calm - N/A   Unknown
9:50 AM 37.4 °F 32.0 °F 81% 30.42 in 5.0 mi Calm Calm - N/A   Unknown
10:50 AM 42.8 °F 32.0 °F 66% 30.42 in - Calm Calm - N/A   Clear
11:50 AM 46.4 °F 32.0 °F 57% 30.42 in - Calm Calm - N/A   Clear
12:50 PM 51.8 °F 32.0 °F 47% 30.39 in - Calm Calm - N/A   Clear
1:50 PM 53.6 °F 32.0 °F 44% 30.36 in - Calm Calm - N/A   Clear
2:00 PM 53 °F 32 °F 33% 30.39 in 6 mi Calm Calm - -   Clear
2:50 PM 55.4 °F 32.0 °F 41% 30.36 in - Calm Calm - N/A   Clear
3:50 PM 53.6 °F 32.0 °F 44% 30.36 in - Calm Calm - N/A   Clear
4:50 PM 50.0 °F 32.0 °F 50% 30.36 in 6.2 mi Calm Calm - N/A   Scattered Clouds
5:50 PM 46.4 °F 33.8 °F 62% 30.36 in 6.2 mi Calm Calm - N/A   Scattered Clouds
6:50 PM 42.8 °F 35.6 °F 76% 30.36 in 6.2 mi Calm Calm - N/A   Scattered Clouds
7:50 PM 42.8 °F 35.6 °F 76% 30.36 in 6.2 mi Calm Calm - N/A   Scattered Clouds
8:00 PM 42 °F 36 °F 72% 30.39 in 6 mi Calm Calm - -   Scattered Clouds
8:50 PM 42.8 °F 37.4 °F 81% 30.36 in 6.2 mi Calm Calm - N/A   Mostly Cloudy
9:50 PM 41.0 °F 35.6 °F 81% 30.39 in 6.2 mi Calm Calm - N/A   Mostly Cloudy
10:50 PM 41.0 °F 35.6 °F 81% 30.39 in 6.2 mi Calm Calm - N/A   Mostly Cloudy
11:50 PM 41.0 °F 35.6 °F 81% 30.39 in 6.2 mi Calm Calm - N/A   Mostly Cloudy